Orbital Elements at Epoch 2459000.5 (2020-May-31.0) TDB
Reference: JPL 27 (heliocentric ecliptic J2000)
Element | Value | Uncertainty (1-sigma) | Units |
e | .2350506772422553 | 4.234e-08 | |
a | 2.43502308086919 | 9.3528e-09 | au |
q | 1.862669256610364 | 1.024e-07 | au |
i | 3.603130796913295 | 2.958e-06 | deg |
node | 101.1691997330866 | 6.7974e-05 | deg |
peri | 260.0391078532947 | 6.8265e-05 | deg |
M | 176.9430733476869 | 6.3183e-06 | deg |
tp | 2458318.343352518732 (2018-Jul-18.84335252) | 2.3142e-05 | TDB |
period | 1387.8836195566 3.80 | 7.9962e-06 2.189e-08 | d yr |
n | .2593877432713073 | 1.4945e-09 | deg/d |
Q | 3.007376905128016 | 1.1551e-08 | au |
|
| | Orbit Determination Parameters
Additional Information
|